Content
SEND FEEDBACK

Turkmenistan Flag

ASHGABAT, TURKMENISTAN


Home > Asia > Turkmenistan
Elevation: 236 meters     Latitude: 37 58N     Longitude: 058 20E

WEATHER
 
SELECT A DAY
Number of Records: 200,906;   Date Range: 3/15/97 - 3/22/16
 
SHARE

PRINT THIS DATA

[ ← Previous Day ]
WEATHER ALMANAC - 3 JANUARY, 2013
[ Next Day → ]
[ °F ]   °C
Weather ElementAverageHighLow
Temperature0.5 °C2.2 °C (5:00 am)-2 °C (10:00 pm)
Dewpoint-1.2 °C0 °C (5:00 am)-3 °C (3:00 am)
Humidity87.5 %100 % (11:00 pm)69 % (5:00 am)
Barometer1032.2 hPa1034.9 hPa (8:00 pm)1028.1 hPa (2:00 am)
Wind Speed7.7 km/h18 km/h (6:00 am)
Weather ElementAverage
Visibility8.7 km
Wind DirectionSSW (195.6 °)

Weather ElementTotal
Precipitation---
Heating Degree Days18.2 (Base 18.3)
Averaged from 37 records on 3 January, 2013
WEATHER CONDITIONS BREAKOUT
WIND DIRECTION BREAKOUT
WEATHER BY HOUR - 3 JANUARY, 2013
[ °F ]   °C
Local TimeTemperatureDewpointHumidityBarometerVisibilityWind DirectionWind SpeedGust SpeedPrecipitationEventsConditions
1:00 AM2 °C-2 °C75 %1029.1 hPa10 kmSW (230°)7.2 km/hMostly Cloudy
2:00 AM1 °C-2 °C81 %1028.1 hPa10 kmSSW (200°)7.2 km/hMostly Cloudy
3:00 AM0 °C-3 °C80 %1029.1 hPa10 kmSW (230°)10.8 km/hMostly Cloudy
4:00 AM1 °C-2 °C81 %1029.1 hPa10 kmWSW (240°)7.2 km/hMostly Cloudy
5:00 AM2.2 °C-1.7 °C69 %1030.8 hPa9.7 kmWest (270°)7.2 km/hOvercast
5:00 AM2 °C0 °C87 %1029.1 hPa10 kmWest (270°)7.2 km/hOvercast
6:00 AM2 °C0 °C87 %1030.1 hPa10 kmWNW (290°)18 km/hOvercast
7:00 AM2 °C0 °C87 %1030.1 hPa10 kmWNW (300°)14.3 km/hOvercast
8:00 AM1 °C0 °C93 %1030.1 hPa10 kmNW (320°)7.2 km/hOvercast
8:00 AM1.7 °C-0.6 °C79 %1032.2 hPa9.7 kmNNW (330°)10.8 km/hOvercast
9:00 AM2 °C0 °C87 %1031.2 hPa10 kmWNW (300°)10.8 km/hOvercast
10:00 AM1 °C-1 °C87 %1032.2 hPa9 kmWNW (300°)10.8 km/hSnowLight Snow
11:00 AM1.1 °C-0.6 °C83 %1033.9 hPa3.2 kmNW (310°)7.2 km/hSnowLight Snow Showers
11:00 AM1 °C0 °C93 %1033.2 hPa5 kmNW (310°)7.2 km/hSnowLight Snow Showers
11:30 AM1 °C0 °C93 %1033.2 hPaNW (310°)10.8 km/hSnowLight Snow
12:00 PM1 °C0 °C93 %1033.2 hPa6.9 kmWNW (300°)10.8 km/hSnowLight Snow
12:30 PM1 °C0 °C93 %1033.2 hPa6.9 kmNW (320°)10.8 km/hSnowLight Snow
1:00 PM1 °C-1 °C87 %1033.2 hPa9 kmNW (320°)14.3 km/hSnowLight Snow
1:30 PM1 °C-1 °C87 %1033.2 hPa10 kmNW (320°)14.3 km/hSnowLight Snow
2:00 PM1.1 °C-1.7 °C75 %1034.2 hPa9.7 kmNW (310°)18 km/hSnowLight Snow
2:00 PM0 °C-1 °C93 %1032.2 hPa8 kmNorth (350°)10.8 km/hSnowLight Snow
2:30 PM0 °C-1 °C93 %1032.2 hPa6.9 kmNorth (350°)7.2 km/hSnowLight Snow
3:00 PM0 °C-1 °C93 %1032.2 hPa8 kmNNE (20°)7.2 km/hSnowLight Snow
3:30 PM0 °C-1 °C93 %1032.2 hPa9 kmVariable3.5 km/hSnowLight Snow
4:00 PM0 °C-1 °C93 %1033.2 hPa10 kmVariable3.5 km/hSnowLight Snow
4:30 PM0 °C-1 °C93 %1033.2 hPa10 kmNNE (20°)3.5 km/hSnowLight Snow
5:00 PM0.6 °C-1.7 °C79 %1034.5 hPa9.7 kmCalmSnowLight Snow
5:00 PM0 °C-1 °C93 %1033.2 hPa10 kmCalmOvercast
6:00 PM0 °C-2 °C87 %1033.2 hPa10 kmCalmOvercast
7:00 PM0 °C-1 °C93 %1033.2 hPa10 kmCalmOvercast
8:00 PM0 °C-2.2 °C81 %1034.9 hPa9.7 kmNE (40°)3.5 km/hPartly Cloudy
8:00 PM0 °C-2 °C87 %1033.2 hPa8 kmCalmMostly Cloudy
9:00 PM-1 °C-2 °C93 %1033.2 hPaSE (130°)10.8 km/hScattered Clouds
10:00 PM-2 °C-3 °C93 %1033.2 hPaSE (130°)7.2 km/hPartly Cloudy
11:00 PM-1.1 °C-2.8 °C84 %1034.5 hPa9.7 kmEast (100°)7.2 km/hScattered Clouds
11:00 PM-2 °C-2 °C100 %1032.2 hPa2.6 kmCalmPartly Cloudy
11:30 PM-2 °C-3 °C93 %1032.2 hPa5 kmESE (120°)7.2 km/hPartly Cloudy
Hourly data recorded from UTAA, located 0 kilometers away from Ashgabat, Turkmenistan




STORIES FROM OUR PARTNERS